Погода в Каргинской

Россия / Ростовская область     49°21′12″N   41°38′15″E
темп.,
°C
ветер,
м/с
пор.,
м/с
влажн.,
%
обл.,
%
осадки,
мм/ч
давл.,
гПа
погр.,
м
15 апреля, чт
чт1500:00+11юв2278100 0.0 101611
03:00+10ю228599 0.0 101615
06:00+10зюз2289100 0.0 101521
09:00+14зюз347092 0.0 1016532
12:00+16з3355100 0.0 10151432
15:00+17юз23455 0.1 10151629
18:00+16юз464813 0.0 1015265
21:00+12юз47636 0.0 1016119
16 апреля, пт
пт1600:00+10зюз377866 0.0 1017172
03:00+9зюз33840 0.0 101742
06:00+8зюз238821 0.0 101851
09:00+13юз3356100 0.0 1019517
12:00+17ююз45400 0.0 10181309
15:00+18ююз55389 0.0 10182011
18:00+16зюз3448100 0.0 1018117
21:00+12зюз5873100 0.0 1019354
17 апреля, сб
сб1700:00+10з2391100 2.1 1019176
03:00+10вюв359296 3.5 1018375
06:00+9з6889100 0.7 1018455
09:00+9зюз3586100 2.1 1020372
12:00+14зюз46485 0.2 10201862
15:00+14зюз664296 0.2 10201833
18:00+13з354885 0.0 1019419
21:00+11зюз3556100 0.0 1020146
18 апреля, вс
вс1800:00+8з487010 0.0 1021191
03:00+6з35773 0.0 102194
06:00+5зюз22805 0.0 102053
09:00+10юз336168 0.0 1019798
12:00+13юз34483 0.0 10181378
15:00+15юз344361 0.0 10171902
18:00+14зюз2350100 0.0 1017189
21:00+11св2460100 0.0 1017120
19 апреля, пн
пн1900:00+11юз1161100 0.0 101725
03:00+10св1165100 0.0 101626
06:00+10с116999 0.0 101724
09:00+13ссв326048 0.1 1017658
12:00+14с224976 0.7 10161412
15:00+15ссв434798 0.9 10161820
18:00+14ссв455824 0.0 1017763
21:00+9всв712828 0.1 1018565